Tracking 35275 objects as of 8-Sep-2026
HD Live streaming from Space Station
objects crossing your sky now

USA 386

Track USA 386 now!
10-day predictions


NORAD ID: 60169
Int'l Code: 2024-121M
Launch date: June 29, 2024
Source: United States (US)
Launch site: AIR FORCE WESTERN TEST RANGE (AFWTR)
Your satellite tracking list
Your tracking list is empty




NASA's NSSDC Master Catalog

Two Line Element Set (TLE):
1 60169U 24121M   26236.03709943 0.00000000  00000-0  00000-0 0    09
2 60169  70.0230 216.5874 0003000 260.8088  99.1912 14.96713199    05
Source of the keplerian elements: MCCANTS